When you browse on this site, cookies collect data to enhance your experience and personalize the content and advertising you see.
Visit our Privacy Policy to learn more. By continuing to use the site, you agree to this use of cookies and data.
  • In Slovakia
  • List of Countries
  • For 7 days
  • Water Temperature
  • Satellite Maps
  • Weather Map
  • Weather Widgets
  • user-avatar
    Login

    Hourly Weather Wylazy

    Today, 16 July, Tuesday

    Time Temperature Precipitation Wind Pressure Humidity
    00:00 +14°C° 0.1 mm 1 mps 746 mmHg 86%
    01:00 +14°C° 0 mm 1 mps 745 mmHg 84%
    02:00 +14°C° 0 mm 1 mps 745 mmHg 85%
    03:00 +13°C° 0 mm 2 mps 745 mmHg 86%
    04:00 +13°C° 0 mm 2 mps 745 mmHg 87%
    05:00 +14°C° 0 mm 2 mps 745 mmHg 85%
    06:00 +16°C° 0 mm 3 mps 745 mmHg 82%
    07:00 +17°C° 0 mm 3 mps 745 mmHg 80%
    08:00 +18°C° 0.5 mm 4 mps 745 mmHg 78%
    09:00 +17°C° 0.5 mm 5 mps 744 mmHg 76%
    10:00 +19°C° 0.5 mm 6 mps 744 mmHg 74%
    11:00 +19°C° 0.1 mm 6 mps 744 mmHg 71%
    12:00 +17°C° 0.1 mm 6 mps 744 mmHg 69%
    13:00 +17°C° 0.1 mm 7 mps 744 mmHg 66%
    14:00 +17°C° 0 mm 6 mps 744 mmHg 66%
    15:00 +16°C° 0 mm 5 mps 744 mmHg 66%
    16:00 +16°C° 0 mm 5 mps 744 mmHg 66%
    17:00 +17°C° 0 mm 4 mps 744 mmHg 71%
    18:00 +15°C° 0 mm 4 mps 743 mmHg 75%
    19:00 +15°C° 0 mm 4 mps 743 mmHg 80%
    20:00 +14°C° 0.1 mm 3 mps 743 mmHg 85%
    21:00 +13°C° 0.1 mm 3 mps 744 mmHg 90%
    22:00 +12°C° 0.1 mm 3 mps 744 mmHg 95%
    23:00 +12°C° 0 mm 3 mps 744 mmHg 95%

    Tomorrow, 17 July, Wednesday

    Time Temperature Precipitation Wind Pressure Humidity
    00:00 +12°C° 0 mm 3 mps 744 mmHg 95%
    01:00 +12°C° 0 mm 2 mps 744 mmHg 95%
    02:00 +11°C° 0.2 mm 3 mps 743 mmHg 96%
    03:00 +11°C° 0.2 mm 3 mps 743 mmHg 96%
    04:00 +12°C° 0.2 mm 3 mps 743 mmHg 97%
    05:00 +12°C° 0.3 mm 4 mps 742 mmHg 94%
    06:00 +13°C° 0.3 mm 5 mps 742 mmHg 91%
    07:00 +14°C° 0.3 mm 6 mps 742 mmHg 89%
    08:00 +14°C° 0.2 mm 6 mps 742 mmHg 84%
    09:00 +15°C° 0.2 mm 6 mps 742 mmHg 79%
    10:00 +16°C° 0.2 mm 7 mps 742 mmHg 74%
    11:00 +17°C° 0.6 mm 7 mps 742 mmHg 71%
    12:00 +18°C° 0.6 mm 7 mps 742 mmHg 69%
    13:00 +18°C° 0.6 mm 7 mps 743 mmHg 67%
    14:00 +18°C° 0.4 mm 7 mps 743 mmHg 68%
    15:00 +19°C° 0.4 mm 6 mps 743 mmHg 68%
    16:00 +19°C° 0.4 mm 6 mps 743 mmHg 69%
    17:00 +17°C° 0.1 mm 5 mps 743 mmHg 72%
    18:00 +17°C° 0.1 mm 4 mps 743 mmHg 76%
    19:00 +16°C° 0.1 mm 3 mps 743 mmHg 80%
    20:00 +14°C° 0 mm 3 mps 744 mmHg 83%
    21:00 +12°C° 0 mm 3 mps 744 mmHg 87%
    22:00 +11°C° 0 mm 3 mps 744 mmHg 91%
    23:00 +11°C° 0 mm 3 mps 744 mmHg 92%

    Day after tomorrow, 18 July, Thursday

    Time Temperature Precipitation Wind Pressure Humidity
    00:00 +11°C° 0 mm 3 mps 744 mmHg 93%
    01:00 +11°C° 0 mm 3 mps 744 mmHg 94%
    02:00 +11°C° 0 mm 4 mps 744 mmHg 93%
    03:00 +12°C° 0 mm 4 mps 744 mmHg 92%
    04:00 +13°C° 0 mm 4 mps 744 mmHg 92%
    05:00 +14°C° 0.1 mm 4 mps 744 mmHg 89%
    06:00 +15°C° 0.1 mm 4 mps 745 mmHg 86%
    07:00 +17°C° 0.1 mm 4 mps 745 mmHg 83%
    08:00 +18°C° 0.1 mm 4 mps 745 mmHg 77%
    09:00 +19°C° 0.1 mm 4 mps 745 mmHg 71%
    10:00 +21°C° 0.1 mm 4 mps 745 mmHg 66%
    11:00 +21°C° 0.3 mm 4 mps 745 mmHg 65%
    12:00 +22°C° 0.3 mm 5 mps 745 mmHg 64%
    13:00 +22°C° 0.3 mm 5 mps 745 mmHg 63%
    14:00 +22°C° 0.2 mm 5 mps 745 mmHg 62%
    15:00 +23°C° 0.2 mm 5 mps 745 mmHg 62%
    16:00 +23°C° 0.2 mm 5 mps 745 mmHg 61%
    17:00 +21°C° 0.1 mm 4 mps 745 mmHg 67%
    18:00 +20°C° 0.1 mm 3 mps 746 mmHg 72%
    19:00 +19°C° 0.1 mm 2 mps 746 mmHg 78%
    20:00 +18°C° 0 mm 2 mps 746 mmHg 81%
    21:00 +16°C° 0 mm 2 mps 746 mmHg 83%
    22:00 +15°C° 0 mm 2 mps 746 mmHg 86%
    23:00 +15°C° 0 mm 1 mps 747 mmHg 88%

    19 July, Friday

    Time Temperature Precipitation Wind Pressure Humidity
    00:00 +14°C° 0 mm 1 mps 747 mmHg 89%
    01:00 +14°C° 0 mm 1 mps 747 mmHg 91%
    02:00 +13°C° 0 mm 1 mps 747 mmHg 92%
    03:00 +13°C° 0 mm 1 mps 747 mmHg 92%
    04:00 +13°C° 0 mm 1 mps 747 mmHg 93%
    05:00 +15°C° 0 mm 1 mps 747 mmHg 87%
    06:00 +16°C° 0 mm 1 mps 747 mmHg 81%
    07:00 +19°C° 0 mm 1 mps 748 mmHg 76%
    08:00 +21°C° 0 mm 1 mps 748 mmHg 69%
    09:00 +21°C° 0 mm 2 mps 748 mmHg 61%
    10:00 +23°C° 0 mm 2 mps 748 mmHg 54%
    11:00 +24°C° 0 mm 2 mps 748 mmHg 52%
    12:00 +25°C° 0 mm 2 mps 748 mmHg 49%
    13:00 +25°C° 0 mm 2 mps 747 mmHg 47%
    14:00 +25°C° 0 mm 2 mps 747 mmHg 48%
    15:00 +25°C° 0 mm 1 mps 747 mmHg 50%
    16:00 +25°C° 0 mm 1 mps 747 mmHg 52%
    17:00 +24°C° 0 mm 1 mps 747 mmHg 55%
    18:00 +23°C° 0 mm 1 mps 747 mmHg 59%
    19:00 +20°C° 0 mm 0 mps 747 mmHg 62%
    20:00 +21°C° 0 mm 1 mps 748 mmHg 63%
    21:00 +20°C° 0 mm 1 mps 748 mmHg 64%
    22:00 +18°C° 0 mm 2 mps 748 mmHg 64%
    23:00 +17°C° 0 mm 2 mps 748 mmHg 67%

    20 July, Saturday

    Time Temperature Precipitation Wind Pressure Humidity
    00:00 +16°C° 0 mm 2 mps 748 mmHg 70%
    01:00 +16°C° 0 mm 2 mps 748 mmHg 73%
    02:00 +15°C° 0 mm 2 mps 748 mmHg 75%
    03:00 +15°C° 0 mm 1 mps 748 mmHg 77%
    04:00 +15°C° 0 mm 1 mps 748 mmHg 79%
    05:00 +18°C° 0 mm 1 mps 748 mmHg 75%
    06:00 +20°C° 0 mm 1 mps 749 mmHg 71%
    07:00 +21°C° 0 mm 2 mps 749 mmHg 66%
    08:00 +23°C° 0 mm 2 mps 749 mmHg 61%
    09:00 +24°C° 0 mm 2 mps 749 mmHg 56%
    10:00 +26°C° 0 mm 2 mps 749 mmHg 51%
    11:00 +26°C° 0 mm 2 mps 749 mmHg 49%
    12:00 +26°C° 0 mm 1 mps 749 mmHg 47%
    13:00 +27°C° 0 mm 1 mps 749 mmHg 46%
    14:00 +27°C° 0 mm 1 mps 749 mmHg 46%
    15:00 +27°C° 0 mm 1 mps 749 mmHg 47%
    16:00 +27°C° 0 mm 1 mps 749 mmHg 47%
    17:00 +26°C° 0 mm 1 mps 749 mmHg 52%
    18:00 +24°C° 0 mm 1 mps 749 mmHg 58%
    19:00 +23°C° 0 mm 1 mps 749 mmHg 63%
    20:00 +22°C° 0 mm 1 mps 750 mmHg 66%
    21:00 +21°C° 0 mm 1 mps 750 mmHg 68%
    22:00 +19°C° 0 mm 1 mps 750 mmHg 71%
    23:00 +19°C° 0 mm 1 mps 750 mmHg 75%

    21 July, Sunday

    Time Temperature Precipitation Wind Pressure Humidity
    00:00 +18°C° 0 mm 1 mps 750 mmHg 78%
    01:00 +18°C° 0 mm 1 mps 750 mmHg 81%
    02:00 +16°C° 0 mm 1 mps 750 mmHg 83%
    03:00 +16°C° 0 mm 1 mps 750 mmHg 84%
    04:00 +16°C° 0 mm 1 mps 750 mmHg 86%
    05:00 +18°C° 0 mm 2 mps 750 mmHg 80%
    06:00 +20°C° 0 mm 2 mps 751 mmHg 75%
    07:00 +23°C° 0 mm 2 mps 751 mmHg 69%
    08:00 +24°C° 0 mm 2 mps 751 mmHg 63%
    09:00 +26°C° 0 mm 3 mps 751 mmHg 57%
    10:00 +27°C° 0 mm 3 mps 751 mmHg 50%
    11:00 +28°C° 0 mm 3 mps 751 mmHg 48%
    12:00 +28°C° 0 mm 3 mps 751 mmHg 46%
    13:00 +29°C° 0 mm 3 mps 751 mmHg 45%
    14:00 +28°C° 0 mm 2 mps 751 mmHg 46%
    15:00 +28°C° 0 mm 2 mps 751 mmHg 47%
    16:00 +28°C° 0 mm 2 mps 751 mmHg 49%
    17:00 +27°C° 0 mm 2 mps 751 mmHg 54%
    18:00 +25°C° 0 mm 2 mps 751 mmHg 60%
    19:00 +24°C° 0 mm 2 mps 750 mmHg 65%
    20:00 +23°C° 0 mm 2 mps 751 mmHg 68%
    21:00 +21°C° 0 mm 3 mps 751 mmHg 70%
    22:00 +21°C° 0 mm 3 mps 751 mmHg 73%
    23:00 +20°C° 0 mm 3 mps 751 mmHg 74%
    Show more